Location: Hastringsfeld
(50.9620°N, 10.4787°E)
Time: 05:17:13
(UTC+00:00)

CZ-2C R/B - Pass Details

Date: 26 September 2023
Orbit: 784 x 869 km, 98.3° (Epoch: 29 November)

Event Time Altitude Azimuth Distance (km) Brightness Sun altitude
Exits shadow 03:08:27 26° 291° (WNW) 1,516 3.6 -19.4°
Drops below altitude 10° 03:11:46 10° 327° (NNW) 2,381 4.9 -19.0°
Sets 03:14:27 0° 338° (NNW) 3,328 5.8 -18.6°
